Fairbury, Nebraska, United States (68352)
Lat: 40.14N, Lon: 97.18W
Wx Zone: NEZ088
Local Info
Past Weather Observations for Today

NOTE: This archive is for the closest National Weather Service station to Fairbury. Information may differ from the station used for current weather conditions.

Click here for Long-term Archive

Time Weather Temperature Dewpoint Humidity Pressure Winds Precip Visibility
17:35
Clear
86°F / 30°C 61°F / 16°C 43% 29.83 in
(1010 mb)
SSE 12.7 mph
(SSE 20 kph)
- 10SM
17:15
Clear
88°F / 31°C 61°F / 16°C 40% 29.83 in
(1010 mb)
SSE 13.8 mph
(SSE 22 kph)
- 10SM
16:55
Clear
88°F / 31°C 61°F / 16°C 40% 29.83 in
(1010 mb)
SW 13.8 mph
(SW 22 kph)
- 10SM
16:35
Clear
88°F / 31°C 61°F / 16°C 40% 29.83 in
(1010 mb)
SW 13.8 mph
(SW 22 kph)
- 10SM
16:15
Clear
88°F / 31°C 61°F / 16°C 40% 29.83 in
(1010 mb)
SW 16.1 mph
(SW 26 kph)
- 10SM
15:55
Clear
88°F / 31°C 61°F / 16°C 40% 29.83 in
(1010 mb)
SSE 16.1 mph
(SSE 26 kph)
- 10SM
15:35
Clear
90°F / 32°C 61°F / 16°C 38% 29.83 in
(1010 mb)
SW 17.3 mph
(SW 28 kph)
- 10SM
15:15
Clear
90°F / 32°C 61°F / 16°C 38% 29.83 in
(1010 mb)
SSE 15 mph
(SSE 24 kph)
- 10SM
14:55
Clear
90°F / 32°C 61°F / 16°C 38% 29.86 in
(1011 mb)
SSE 13.8 mph
(SSE 22 kph)
- 10SM
14:35
Clear
90°F / 32°C 63°F / 17°C 41% 29.86 in
(1011 mb)
SW 15 mph
(SW 24 kph)
- 10SM
14:15
Clear
88°F / 31°C 63°F / 17°C 43% 29.89 in
(1012 mb)
SW 11.5 mph
(SW 19 kph)
- 10SM
13:55
Clear
88°F / 31°C 63°F / 17°C 43% 29.89 in
(1012 mb)
SW 11.5 mph
(SW 19 kph)
- 10SM
13:35
Clear
88°F / 31°C 63°F / 17°C 43% 29.89 in
(1012 mb)
SSE 15 mph
(SSE 24 kph)
- 10SM
13:15
Clear
88°F / 31°C 63°F / 17°C 43% 29.89 in
(1012 mb)
SW 15 mph
(SW 24 kph)
- 10SM
12:55
Clear
86°F / 30°C 61°F / 16°C 43% 29.92 in
(1013 mb)
SW 12.7 mph
(SW 20 kph)
- 10SM
12:35
Clear
86°F / 30°C 63°F / 17°C 46% 29.92 in
(1013 mb)
S 15 mph
(S 24 kph)
- 10SM
12:15
Clear
86°F / 30°C 63°F / 17°C 46% 29.92 in
(1013 mb)
SW 11.5 mph
(SW 19 kph)
- 10SM
11:55
Clear
84°F / 29°C 63°F / 17°C 48% 29.92 in
(1013 mb)
SW 11.5 mph
(SW 19 kph)
- 10SM
11:35
Clear
82°F / 28°C 61°F / 16°C 48% 29.92 in
(1013 mb)
SSE 13.8 mph
(SSE 22 kph)
- 10SM
11:15
Clear
82°F / 28°C 63°F / 17°C 51% 29.92 in
(1013 mb)
SSE 12.7 mph
(SSE 20 kph)
- 10SM
10:55
Clear
81°F / 27°C 63°F / 17°C 54% 29.95 in
(1014 mb)
SSE 15 mph
(SSE 24 kph)
- 10SM
10:35
Clear
81°F / 27°C 63°F / 17°C 54% 29.95 in
(1014 mb)
SW 13.8 mph
(SW 22 kph)
- 10SM
10:15
Clear
79°F / 26°C 63°F / 17°C 58% 29.95 in
(1014 mb)
SW 8.1 mph
(SW 13 kph)
- 10SM
09:55
Clear
77°F / 25°C 63°F / 17°C 61% 29.95 in
(1014 mb)
SW 11.5 mph
(SW 19 kph)
- 10SM
09:35
Clear
75°F / 24°C 63°F / 17°C 65% 29.95 in
(1014 mb)
SW 10.4 mph
(SW 17 kph)
- 10SM
09:15
Clear
73°F / 23°C 63°F / 17°C 69% 29.95 in
(1014 mb)
SW 10.4 mph
(SW 17 kph)
- 10SM
08:55
Clear
72°F / 22°C 63°F / 17°C 73% 29.95 in
(1014 mb)
S 11.5 mph
(S 19 kph)
- 10SM
08:35
Clear
70°F / 21°C 63°F / 17°C 78% 29.95 in
(1014 mb)
S 8.1 mph
(S 13 kph)
- 10SM
08:15
Partly Cloudy
68°F / 20°C 63°F / 17°C 83% 29.95 in
(1014 mb)
S 10.4 mph
(S 17 kph)
- 10SM
07:55
Mostly Cloudy
66°F / 19°C 63°F / 17°C 88% 29.95 in
(1014 mb)
S 10.4 mph
(S 17 kph)
- 10SM
07:35
Mostly Cloudy
66°F / 19°C 63°F / 17°C 88% 29.95 in
(1014 mb)
S 9.2 mph
(S 15 kph)
- 7SM
07:15
Mostly Cloudy
64°F / 18°C 63°F / 17°C 94% 29.95 in
(1014 mb)
S 10.4 mph
(S 17 kph)
- 7SM
06:55
Mostly Cloudy
Fog And Mist
64°F / 18°C 61°F / 16°C 88% 29.95 in
(1014 mb)
S 8.1 mph
(S 13 kph)
- 5SM
06:35
Mostly Cloudy
Fog And Mist
64°F / 18°C 61°F / 16°C 88% 29.95 in
(1014 mb)
S 11.5 mph
(S 19 kph)
- 5SM
06:15
Partly Cloudy
64°F / 18°C 61°F / 16°C 88% 29.95 in
(1014 mb)
S 10.4 mph
(S 17 kph)
- 7SM
05:55
Partly Cloudy
64°F / 18°C 61°F / 16°C 88% 29.95 in
(1014 mb)
S 10.4 mph
(S 17 kph)
- 7SM
05:35
Partly Cloudy
64°F / 18°C 61°F / 16°C 88% 29.95 in
(1014 mb)
S 9.2 mph
(S 15 kph)
- 7SM
05:15
Clear
64°F / 18°C 61°F / 16°C 88% 29.92 in
(1013 mb)
S 10.4 mph
(S 17 kph)
- 7SM
04:55
Clear
64°F / 18°C 61°F / 16°C 88% 29.92 in
(1013 mb)
S 10.4 mph
(S 17 kph)
- 7SM
04:35
Clear
64°F / 18°C 61°F / 16°C 88% 29.92 in
(1013 mb)
S 10.4 mph
(S 17 kph)
- 10SM
04:15
Clear
64°F / 18°C 61°F / 16°C 88% 29.92 in
(1013 mb)
SSE 9.2 mph
(SSE 15 kph)
- 10SM
03:55
Clear
64°F / 18°C 61°F / 16°C 88% 29.95 in
(1014 mb)
S 8.1 mph
(S 13 kph)
- 10SM
03:35
Clear
64°F / 18°C 61°F / 16°C 88% 29.95 in
(1014 mb)
SSE 9.2 mph
(SSE 15 kph)
- 10SM
03:15
Partly Cloudy
64°F / 18°C 61°F / 16°C 88% 29.95 in
(1014 mb)
SSE 8.1 mph
(SSE 13 kph)
- 10SM
02:55
Partly Cloudy
66°F / 19°C 63°F / 17°C 88% 29.95 in
(1014 mb)
S 8.1 mph
(S 13 kph)
- 10SM
02:35
Mostly Cloudy
66°F / 19°C 63°F / 17°C 88% 29.95 in
(1014 mb)
SSE 9.2 mph
(SSE 15 kph)
- 10SM
02:15
Mostly Cloudy
66°F / 19°C 63°F / 17°C 88% 29.95 in
(1014 mb)
S 9.2 mph
(S 15 kph)
- 10SM
01:55
Overcast
66°F / 19°C 63°F / 17°C 88% 29.95 in
(1014 mb)
S 8.1 mph
(S 13 kph)
- 10SM
01:30
Overcast
66°F / 19°C 63°F / 17°C 88% 29.98 in
(1015 mb)
S 9.2 mph
(S 15 kph)
- 10SM
01:15
Overcast
66°F / 19°C 63°F / 17°C 88% 29.98 in
(1015 mb)
S 9.2 mph
(S 15 kph)
- 7SM
00:55
Overcast
66°F / 19°C 63°F / 17°C 88% 29.98 in
(1015 mb)
S 13.8 mph
(S 22 kph)
- 7SM
00:35
Overcast
66°F / 19°C 63°F / 17°C 88% 29.98 in
(1015 mb)
SSE 11.5 mph
(SSE 19 kph)
- 7SM
00:15
Overcast
66°F / 19°C 63°F / 17°C 88% 29.98 in
(1015 mb)
S 10.4 mph
(S 17 kph)
- 7SM
Time Weather Temperature Dewpoint Humidity Pressure Winds Precip Visibility


Weather for websites

WeatherForYou.com, LLC is not responsible for any damages or problems caused by this service. Current weather conditions are obtained from the closest station including government and personal stations which may have varying degrees of accuracy. Weather forecasts are derived from the NOAA NDFD. Like all things, this site belongs to Jesus Christ... He just trusts me to maintain it. If you have any questions or comments email webmaster@weatherforyou.com

Copyright © 2014, WeatherForYou.com LLC. All rights reserved.